STARLINK-32394

Last updated on Thu Nov 21 2024 00:02:05 GMT+0000 (Coordinated Universal Time)

1 61853U 24202J 24325.58335648 -.01372831 00000+0 -94308-2 0 9993 2 61853 43.0037 50.6146 0001286 279.9230 128.2271 15.76464700 3234
UTC large
Height (km)
Speed (km/s)
/
Latitude / Longitude
Inclination (degrees)
Orbital Period (minutes)
Azimuth
Elevation
Range (km)
Doppler Factor

Next 0 passes for location: London (51.5072 / 0.1276)

Sorry there are no passes over London.